sat.trackr.live / text

‹ back to catalog

KUIPER-00144

NORAD 67133 · 2025-301A

PAYLOAD ACTIVE UNKNOWN

§ Identity

Operator
Country
US
Launch date
2025-12-16
Launch site
AFETR
Launch vehicle
Mass (kg)
RCS (m²)

External: N2YO · Heavens-Above · Gunter

§ Orbital elements

Epoch: 2026-09-20T06:10:06.267072Z

Period
97.30 min
Inclination
51.9014°
Eccentricity
0.0000647
Mean motion
14.79932814 rev/d
Perigee alt
629.1 km
Apogee alt
630.0 km
Semi-major
7,007.7 km
B*
2.4163e-4
RAAN
275.2490°
Arg perigee
64.5556°
Mean anomaly
295.5474°
Rev number
4,268

§ Raw data

KUIPER-001441 67133U 25301A   26263.25701698  .00001621  00000+0  24163-3 0  99962 67133  51.9014 275.2490 0000647  64.5556 295.5474 14.79932814 42683

JSON: /api/v1/satellites/67133 · /tle

For live sub-satellite position, see the globe view (requires WebGL).

§ Visibility from observer

Set your observer location to see the next 7 days of passes ≥ 10°. The values pass through the URL so the page stays shareable.

No JS? Fill the form by hand. The geolocation button needs JavaScript.